Back to catalog

COSMOS 2251 DEB

AliveLEO
NORAD 37132·DEBRIS·🇷🇺 Russia

Launched Jun 16, 1993 from Plesetsk Cosmodrome

Loading…

Next Passes (next 24 hours)

TLE

FreshSource: Space-Track

Epoch: Sep 14, 2026, 02:18 UTC

1 37132U 93036BHE 26257.09598281  .00006005  00000-0  76194-3 0  9992
2 37132  74.0007  50.6029 0039451 138.6521 221.7655 14.81364220664898

Track COSMOS 2251 DEB in real time with AllMySat

Download on the App Store